Temp
66 66 65 57 47 46 41 45 55 53 57 66 69 65 63 68 63 53 70 76 75 74 77 78 78 78 78 78 78 78 78 78 78 78 79 79 79 79 79 79 78 79 79 79 79 78 77 77 76
65 65 61 52 42 36 39 49 50 55 62 66 68 68 66 64 73 69 70 77 77 76 77 77 78 78 78 78 78 77 78 78 78 78 78 78 78 79 78 78 78 78 78 78 77 76 76 76 76
63 65 51 46 42 37 39 49 53 59 65 66 63 69 69 67 73 72 73 78 77 76 77 77 77 78 78 78 77 77 78 78 78 78 78 78 78 78 78 78 77 77 76 76 76 75 75 75 75
53 55 52 42 38 43 47 50 56 58 62 66 66 61 69 74 74 75 76 77 76 76 77 76 77 77 77 77 77 77 78 78 77 77 77 78 78 78 78 77 76 75 75 75 75 75 75 74 75
51 49 41 40 43 47 49 54 58 56 57 61 66 62 64 72 74 75 76 77 75 76 76 75 77 77 77 77 77 77 77 77 77 77 78 78 78 78 76 75 75 75 75 75 75 75 74 74 74
40 44 36 35 41 46 50 56 56 55 58 59 58 51 65 74 72 72 76 75 76 76 76 75 75 76 76 76 76 76 77 77 77 77 77 78 79 78 76 75 74 75 75 75 75 75 74 74 74
36 33 34 37 38 40 50 57 53 49 48 47 53 51 64 65 57 64 73 75 74 75 74 74 75 75 74 75 75 76 76 76 76 76 76 76 76 76 75 75 74 74 74 74 74 74 73 74 72
41 36 29 32 34 37 47 51 56 50 43 51 56 49 50 55 60 62 65 72 73 72 74 73 74 74 74 74 73 74 74 74 74 74 74 72 72 73 74 73 73 74 74 73 73 73 73 72 71
47 30 27 30 32 37 47 46 54 51 47 47 51 53 57 59 58 58 59 61 67 68 72 72 72 74 74 74 72 71 72 72 72 72 69 69 73 73 72 71 71 72 73 73 73 72 71 70 69
38 28 31 40 40 39 44 44 45 43 45 45 48 55 60 58 54 54 53 54 56 64 68 71 72 72 73 74 72 72 72 72 72 73 72 72 71 70 70 68 69 71 71 71 72 71 69 64 60
39 30 39 41 44 45 42 42 45 41 39 45 46 51 56 55 53 53 52 56 57 58 65 72 71 72 71 72 71 71 72 72 72 72 72 71 69 68 68 69 70 69 67 68 68 63 59 58 58
32 40 42 42 45 44 41 45 41 42 41 47 48 52 54 54 52 51 51 54 55 56 58 68 71 71 71 71 70 71 70 71 70 70 70 69 69 68 67 68 67 68 67 64 63 58 57 57 58
34 37 42 44 44 44 45 40 40 41 46 47 49 52 50 53 54 53 54 55 57 55 57 59 67 70 71 72 71 71 70 70 70 70 70 70 68 67 67 64 65 64 64 63 62 55 55 56 57
37 38 38 41 41 42 40 40 42 43 47 47 48 48 49 52 54 54 53 54 57 57 56 58 57 69 70 70 71 71 70 70 69 69 69 69 69 68 66 64 62 62 62 64 61 55 54 54 55
39 31 35 37 39 38 41 34 36 45 46 45 46 48 49 50 56 54 54 53 56 57 57 58 59 64 68 69 70 71 69 70 69 68 69 69 69 68 67 64 61 60 62 62 60 54 53 52 55
30 29 19 34 37 39 37 24 39 45 43 42 43 44 47 49 52 57 58 54 56 57 57 58 59 58 66 67 67 68 68 70 69 68 67 68 68 69 67 64 61 60 62 62 60 54 52 51 52
23 15 20 28 38 37 33 27 39 45 44 42 43 43 44 48 50 54 57 54 55 58 58 56 57 59 61 65 66 68 67 67 65 64 64 63 66 67 65 65 61 62 61 61 59 54 54 52 51
18 19 24 23 32 34 30 29 37 42 42 40 41 40 41 44 48 53 57 57 56 58 58 56 56 59 57 64 66 66 66 64 64 63 63 62 61 64 64 62 61 62 59 58 57 53 53 52 52
27 23 21 27 34 30 28 29 34 39 40 38 38 37 38 41 46 52 55 56 55 57 56 55 55 57 57 65 63 62 61 62 62 62 61 61 61 59 60 60 61 61 58 58 56 54 51 47 50
26 22 21 28 33 31 28 27 34 38 38 39 39 34 30 32 36 40 46 46 46 55 55 56 57 56 57 63 64 63 62 61 62 61 61 61 60 59 58 57 57 58 57 57 56 54 50 46 50
23 22 23 23 27 30 27 23 28 36 39 40 29 28 29 29 30 35 38 39 41 46 44 48 51 54 57 63 63 61 61 60 59 59 59 59 60 59 59 57 56 55 56 56 55 54 52 48 47
11 29 27 24 21 15 28 13 24 27 24 26 24 24 24 27 29 32 33 34 36 40 42 44 45 47 54 62 63 61 59 58 58 58 58 57 58 58 58 57 56 55 55 56 56 55 53 52 48
20 29 25 25 20 17 21 16 16 22 18 20 22 22 24 26 27 27 29 31 33 36 38 40 41 45 47 62 63 61 60 61 58 58 56 56 56 57 58 57 56 55 55 56 56 54 52 53 51
29 20 19 15 17 8 18 17 9 12 14 18 21 21 22 23 25 26 28 29 29 32 35 38 38 40 46 60 63 61 60 58 57 56 55 54 54 54 56 57 56 56 56 56 55 54 52 52 52
14 6 -2 -1 1 3 25 15 9 15 17 18 18 19 21 21 22 23 24 25 25 27 31 36 36 36 41 44 61 61 60 57 58 55 55 53 53 52 53 55 55 55 56 55 55 53 52 51 49
7 7 -1 -7 -3 8 19 10 7 16 19 21 21 20 20 20 21 21 23 24 24 26 27 30 34 33 37 42 58 61 60 58 58 57 56 54 53 52 53 54 55 56 57 56 55 53 53 53 51
11 3 13 6 7 7 10 9 15 17 16 17 18 18 18 19 20 21 22 23 23 24 26 28 30 33 33 40 43 61 58 58 57 57 56 55 54 53 52 53 53 55 55 55 54 53 53 52 50
14 18 2 0 -5 -2 5 4 6 8 10 14 14 14 16 18 19 20 22 22 23 24 25 27 28 31 32 35 41 47 57 57 56 56 54 54 53 53 51 52 53 53 54 54 54 52 53 52 50
10 4 -1 0 5 3 -0 -2 11 8 11 11 13 15 16 17 17 19 21 22 23 24 25 25 26 28 29 32 38 40 54 56 55 55 54 54 53 52 51 52 52 52 52 52 53 52 53 52 51
7 3 -3 -1 -6 -2 6 3 12 12 13 15 14 15 17 18 18 19 20 21 22 23 24 24 25 26 28 30 35 40 39 55 53 54 54 53 52 52 51 51 51 52 52 53 53 51 52 52 49
MSLP
1015.27 1014.89 1014.65 1014.85 1015.53 1013.63 1012.07 1011.38 1010.77 1010.27 1009.54 1008.37 1007.75 1007.48 1006.91 1006.95 1006.65 1006.84 1005.45 1005.50 1005.87 1006.89 1007.21 1007.92 1008.61 1009.03 1009.99 1010.77 1011.03 1011.33 1011.77 1012.29 1012.67 1013.07 1013.61 1014.14 1014.89 1015.26 1015.78 1016.16 1016.39 1016.56 1016.84 1017.22 1017.46 1018.01 1018.46 1018.66 1019.06
1015.56 1015.09 1014.85 1015.05 1014.32 1012.86 1011.10 1011.20 1010.33 1009.60 1008.74 1007.78 1007.71 1007.20 1006.79 1006.28 1005.95 1005.80 1005.58 1005.61 1005.83 1006.71 1007.57 1007.79 1007.93 1008.75 1009.65 1010.66 1011.19 1011.43 1011.87 1012.22 1012.76 1013.28 1013.67 1014.05 1014.70 1015.30 1015.75 1016.25 1016.56 1016.87 1017.19 1017.60 1017.97 1018.53 1018.83 1019.19 1019.40
1015.71 1015.44 1015.61 1014.95 1013.11 1010.93 1011.34 1010.77 1010.36 1009.50 1008.27 1007.52 1007.46 1006.57 1006.26 1005.78 1005.55 1005.39 1005.26 1005.75 1006.37 1006.49 1007.22 1008.00 1008.12 1008.30 1009.34 1010.30 1011.17 1011.66 1011.85 1012.33 1012.74 1013.38 1013.87 1014.17 1014.49 1015.10 1015.78 1016.30 1016.77 1017.19 1017.49 1017.97 1018.50 1018.97 1019.27 1019.65 1019.84
1016.26 1015.68 1015.59 1013.60 1011.66 1012.00 1011.61 1010.84 1010.39 1009.75 1008.92 1008.05 1007.41 1006.69 1005.56 1004.70 1004.89 1005.08 1005.15 1005.81 1006.39 1006.58 1006.86 1007.64 1008.29 1008.48 1009.15 1010.07 1010.92 1011.69 1012.15 1012.46 1012.88 1013.35 1014.00 1014.38 1014.68 1015.03 1015.61 1016.41 1016.84 1017.39 1017.75 1018.38 1018.98 1019.24 1019.74 1020.04 1020.16
1016.76 1016.74 1015.37 1012.87 1011.89 1012.23 1011.92 1011.40 1010.95 1010.10 1009.60 1008.76 1008.05 1007.00 1006.27 1005.00 1004.96 1004.96 1005.13 1005.54 1006.23 1006.72 1006.92 1007.31 1008.16 1008.76 1009.05 1009.99 1010.73 1011.44 1012.12 1012.58 1013.02 1013.47 1013.91 1014.39 1014.88 1015.27 1015.76 1016.33 1016.99 1017.38 1018.01 1018.66 1019.17 1019.54 1019.98 1020.37 1020.53
1017.38 1017.32 1015.74 1013.86 1013.41 1012.92 1012.06 1011.67 1010.95 1010.71 1009.76 1009.76 1009.40 1008.83 1006.75 1005.96 1006.21 1005.44 1005.06 1005.52 1006.10 1006.57 1006.98 1007.30 1007.86 1008.73 1009.16 1009.83 1010.59 1011.24 1011.88 1012.58 1013.12 1013.55 1013.96 1014.44 1014.82 1015.41 1016.02 1016.52 1017.05 1017.56 1018.21 1018.85 1019.30 1019.72 1020.22 1020.64 1020.89
1017.99 1018.06 1016.60 1015.58 1014.48 1013.57 1012.55 1011.72 1011.57 1011.86 1012.06 1012.20 1011.70 1010.47 1008.00 1008.01 1008.68 1009.26 1005.38 1005.44 1006.04 1006.63 1007.16 1007.42 1007.91 1008.61 1009.20 1009.57 1010.36 1011.03 1011.67 1012.40 1013.04 1013.63 1014.02 1014.50 1014.99 1015.52 1016.15 1016.78 1017.28 1017.82 1018.41 1019.03 1019.53 1019.92 1020.47 1020.74 1021.21
1017.80 1018.29 1017.46 1016.08 1015.15 1014.35 1013.85 1012.95 1012.69 1013.21 1013.37 1013.42 1012.73 1011.76 1010.61 1011.29 1010.34 1010.03 1008.68 1005.09 1005.67 1006.62 1006.95 1007.37 1007.75 1008.40 1009.02 1009.61 1010.13 1010.72 1011.47 1012.05 1012.80 1013.55 1014.14 1014.64 1015.23 1015.64 1016.27 1016.84 1017.51 1018.04 1018.67 1019.24 1019.74 1020.21 1020.72 1020.93 1021.34
1017.42 1018.00 1017.27 1016.61 1016.16 1015.31 1014.71 1014.03 1013.30 1014.24 1014.52 1014.19 1013.47 1013.13 1012.16 1011.78 1011.34 1009.96 1009.76 1008.20 1006.24 1006.59 1006.74 1006.98 1007.55 1008.10 1008.66 1009.30 1009.84 1010.39 1011.17 1011.74 1012.69 1013.40 1014.15 1014.76 1015.30 1015.83 1016.37 1016.97 1017.62 1018.27 1018.78 1019.39 1019.92 1020.55 1021.04 1021.28 1021.59
1017.84 1017.79 1017.17 1016.73 1016.40 1015.76 1015.01 1014.95 1014.78 1014.65 1014.79 1014.26 1013.03 1013.13 1012.38 1012.11 1012.04 1011.92 1011.96 1010.31 1009.44 1007.97 1006.92 1007.00 1007.28 1007.86 1008.13 1008.91 1009.59 1010.22 1010.96 1011.73 1012.36 1013.10 1013.99 1014.68 1015.32 1015.85 1016.50 1017.22 1017.81 1018.51 1019.05 1019.66 1020.24 1020.83 1021.45 1021.75 1022.02
1017.54 1017.21 1016.79 1016.23 1016.06 1015.87 1014.97 1014.62 1014.95 1014.73 1014.38 1014.29 1013.01 1012.46 1012.50 1011.50 1012.04 1012.07 1011.40 1011.30 1010.76 1009.88 1008.86 1006.53 1006.87 1007.46 1007.94 1008.44 1009.33 1010.08 1010.72 1011.62 1012.09 1012.75 1013.46 1014.53 1015.40 1016.02 1016.56 1017.30 1018.07 1018.66 1019.37 1019.89 1020.47 1021.27 1021.91 1022.11 1022.37
1017.68 1016.92 1016.36 1015.86 1015.52 1015.35 1014.94 1014.45 1014.56 1014.71 1014.40 1014.06 1013.42 1012.62 1012.36 1012.22 1011.43 1011.79 1011.85 1011.25 1010.75 1010.42 1009.68 1007.73 1006.51 1006.98 1007.56 1007.99 1008.82 1009.67 1010.54 1011.18 1011.73 1012.48 1013.16 1014.07 1015.12 1015.93 1016.44 1016.93 1017.68 1018.52 1019.37 1020.20 1020.77 1021.58 1022.11 1022.32 1022.67
1017.55 1017.00 1016.30 1015.58 1015.17 1015.04 1014.73 1014.16 1014.02 1013.93 1013.81 1013.46 1012.73 1012.05 1012.31 1012.11 1010.66 1011.30 1011.35 1010.96 1010.86 1010.74 1010.26 1009.30 1007.39 1006.88 1007.26 1007.78 1008.52 1009.26 1009.98 1010.70 1011.29 1012.14 1012.73 1013.45 1014.57 1015.53 1016.27 1016.97 1017.50 1018.36 1019.25 1020.03 1021.04 1021.86 1022.24 1022.62 1022.92
1017.53 1017.23 1016.32 1015.72 1015.10 1014.73 1014.52 1013.75 1013.90 1013.42 1013.34 1012.97 1012.83 1011.56 1011.48 1011.32 1010.74 1010.43 1010.23 1010.18 1010.33 1011.15 1010.75 1009.63 1009.11 1007.35 1007.12 1007.58 1008.15 1008.65 1009.30 1010.02 1010.86 1011.77 1012.30 1012.98 1013.78 1014.79 1015.86 1016.76 1017.64 1018.43 1019.16 1019.75 1021.11 1022.02 1022.49 1022.90 1023.20
1017.66 1017.55 1016.28 1015.21 1014.69 1014.44 1014.61 1013.63 1012.95 1012.59 1012.53 1012.33 1012.37 1011.78 1011.02 1010.79 1010.31 1009.13 1009.54 1009.82 1010.05 1009.74 1009.48 1009.79 1009.60 1008.77 1007.15 1007.06 1007.68 1008.22 1008.86 1009.38 1010.50 1011.10 1011.84 1012.58 1013.25 1014.14 1015.29 1016.42 1017.45 1018.36 1018.98 1019.99 1021.17 1022.25 1022.74 1023.35 1023.66
1018.35 1017.93 1016.90 1014.77 1014.75 1014.17 1014.19 1013.13 1012.44 1011.95 1012.13 1012.03 1011.88 1011.68 1011.12 1010.45 1010.12 1009.31 1008.83 1009.47 1009.26 1009.03 1008.99 1009.40 1009.04 1009.68 1007.55 1006.96 1007.37 1007.82 1008.35 1009.08 1009.72 1010.48 1011.42 1011.94 1012.76 1013.40 1014.78 1016.14 1017.15 1018.04 1018.75 1019.90 1021.15 1022.08 1022.84 1023.63 1024.33
1018.69 1018.27 1017.01 1014.58 1014.58 1014.06 1013.88 1012.83 1011.57 1011.31 1011.50 1011.40 1011.22 1011.19 1010.70 1010.08 1009.79 1009.31 1008.51 1008.85 1008.22 1008.40 1008.27 1008.55 1010.13 1008.70 1008.42 1006.70 1006.99 1007.32 1007.80 1008.59 1009.02 1009.81 1010.85 1012.11 1012.23 1012.54 1013.87 1015.37 1016.63 1017.69 1018.54 1019.79 1021.06 1022.24 1022.72 1023.55 1024.68
1018.94 1018.49 1017.09 1015.74 1014.07 1014.20 1013.20 1012.37 1011.09 1010.91 1010.97 1010.80 1010.96 1010.89 1010.55 1009.90 1008.58 1008.43 1007.70 1007.64 1007.98 1008.11 1007.87 1008.49 1008.22 1008.79 1008.67 1006.70 1006.85 1007.40 1007.79 1008.27 1008.78 1008.37 1009.96 1011.16 1011.72 1012.96 1013.23 1014.86 1015.90 1017.08 1018.50 1019.78 1020.94 1022.17 1023.03 1023.81 1024.52
1018.56 1017.95 1017.02 1014.72 1014.11 1014.33 1012.93 1011.72 1010.63 1010.59 1010.73 1010.69 1011.04 1011.28 1010.77 1010.33 1009.70 1008.04 1007.17 1007.00 1007.28 1007.28 1008.01 1007.55 1008.17 1008.05 1008.28 1006.81 1006.58 1007.14 1007.58 1008.15 1008.75 1009.08 1008.44 1009.47 1011.64 1013.04 1013.18 1014.22 1015.34 1016.56 1018.15 1019.33 1020.68 1021.94 1022.86 1024.51 1024.86
1017.86 1017.62 1016.38 1014.20 1013.84 1014.07 1012.68 1010.89 1010.70 1010.21 1010.48 1010.82 1011.07 1012.10 1012.64 1012.16 1011.43 1010.69 1009.58 1009.26 1009.07 1007.57 1007.70 1007.00 1007.18 1006.59 1006.73 1006.16 1005.85 1006.34 1007.36 1007.94 1008.23 1008.81 1009.49 1009.39 1010.80 1012.48 1013.38 1014.84 1015.34 1016.11 1018.07 1019.56 1020.44 1021.57 1022.78 1024.29 1024.69
1017.86 1017.62 1016.40 1015.73 1013.41 1013.66 1012.23 1010.30 1010.34 1009.76 1010.56 1011.33 1013.74 1014.48 1014.36 1014.18 1013.49 1012.66 1011.31 1010.75 1009.72 1008.78 1007.77 1006.89 1007.14 1007.29 1006.43 1006.04 1005.20 1006.18 1007.14 1007.92 1008.38 1009.06 1009.81 1010.62 1011.76 1011.56 1012.81 1013.97 1015.66 1016.52 1017.80 1019.23 1019.74 1020.86 1021.81 1023.03 1024.29
1017.55 1017.01 1016.51 1015.34 1015.29 1013.33 1012.89 1011.38 1011.23 1011.96 1013.15 1014.47 1015.41 1016.04 1016.02 1015.42 1014.91 1014.26 1013.24 1012.06 1010.95 1009.39 1008.31 1006.22 1007.16 1006.17 1005.67 1005.10 1004.33 1005.40 1006.18 1007.03 1007.97 1008.64 1009.65 1010.80 1011.61 1011.80 1012.51 1013.07 1014.57 1015.93 1017.32 1018.76 1019.79 1020.32 1021.35 1022.17 1023.27
1017.70 1017.20 1016.19 1014.69 1014.99 1014.58 1012.52 1013.64 1013.68 1014.10 1015.27 1016.34 1017.22 1017.61 1017.25 1016.77 1016.14 1015.40 1014.68 1013.86 1012.48 1011.13 1009.70 1007.35 1006.97 1005.54 1006.32 1004.43 1003.50 1004.75 1005.68 1006.43 1007.39 1008.29 1009.30 1010.32 1011.39 1011.84 1012.47 1013.43 1014.37 1015.15 1015.11 1017.55 1018.69 1019.99 1021.13 1021.38 1022.46
1018.39 1017.82 1016.19 1015.27 1015.75 1015.30 1013.04 1014.24 1016.11 1017.02 1018.09 1018.19 1018.57 1018.62 1018.26 1017.64 1016.80 1016.14 1015.29 1014.29 1013.47 1011.80 1009.37 1007.14 1007.35 1007.46 1007.49 1004.07 1003.55 1004.09 1004.97 1005.85 1006.91 1007.76 1008.96 1010.04 1011.03 1011.88 1012.58 1012.94 1013.76 1014.53 1015.12 1015.48 1017.11 1018.79 1019.93 1020.40 1021.44
1020.01 1020.26 1019.45 1018.30 1017.02 1015.54 1013.79 1015.04 1018.28 1019.28 1019.46 1019.58 1019.55 1019.38 1019.02 1018.62 1017.54 1016.39 1016.00 1015.21 1013.73 1012.21 1010.15 1008.69 1008.29 1008.09 1006.13 1005.65 1002.82 1003.48 1004.21 1004.86 1005.62 1006.61 1007.95 1009.27 1010.29 1011.32 1012.16 1012.88 1013.69 1014.33 1014.86 1015.03 1015.95 1017.72 1018.93 1019.73 1020.86
1021.47 1022.32 1023.00 1022.56 1020.09 1017.06 1015.74 1017.08 1019.66 1020.63 1020.69 1020.48 1020.30 1020.17 1019.87 1019.17 1018.21 1017.21 1016.78 1016.23 1015.06 1013.88 1011.60 1010.76 1010.03 1008.37 1007.01 1005.57 1003.02 1002.73 1003.41 1004.22 1005.20 1005.95 1007.18 1008.08 1009.03 1010.13 1011.32 1012.25 1013.07 1013.66 1014.00 1015.26 1014.68 1016.77 1018.03 1018.79 1020.08
1022.00 1023.08 1023.28 1023.14 1021.20 1020.15 1018.18 1019.42 1020.14 1020.29 1020.96 1020.91 1020.58 1020.40 1020.19 1019.44 1018.55 1017.69 1016.94 1016.22 1015.04 1013.86 1013.28 1011.64 1010.09 1008.28 1008.97 1007.44 1005.10 1002.35 1002.65 1003.69 1004.62 1005.65 1006.75 1007.58 1008.55 1009.39 1010.46 1011.51 1012.47 1013.43 1014.23 1014.63 1015.52 1015.54 1016.59 1017.66 1019.15
1022.71 1023.88 1024.32 1024.76 1023.56 1021.53 1019.69 1020.28 1020.88 1021.36 1021.57 1021.35 1021.14 1020.86 1020.48 1019.73 1018.76 1018.02 1017.49 1016.73 1015.30 1014.24 1013.69 1011.33 1010.82 1008.69 1008.90 1007.69 1005.24 1003.55 1002.12 1002.98 1004.08 1005.17 1006.24 1006.92 1007.91 1008.84 1009.92 1010.88 1011.93 1013.00 1013.75 1014.39 1014.81 1015.86 1016.46 1016.72 1017.86
1024.00 1025.35 1026.33 1026.24 1025.35 1024.14 1022.37 1021.65 1021.93 1022.69 1022.58 1022.32 1021.99 1021.52 1020.84 1020.13 1019.26 1018.34 1017.44 1016.70 1016.11 1014.49 1012.99 1012.41 1011.36 1009.79 1008.78 1008.19 1005.92 1003.44 1002.31 1002.22 1003.35 1004.35 1005.48 1006.41 1007.42 1008.22 1009.22 1010.17 1011.09 1012.16 1013.12 1013.78 1014.40 1015.09 1015.62 1016.68 1016.95
1024.40 1025.78 1026.80 1027.26 1026.68 1025.64 1024.71 1022.73 1022.70 1023.02 1023.02 1022.66 1022.29 1021.79 1020.98 1020.40 1019.70 1018.69 1017.71 1016.49 1015.18 1014.97 1013.83 1012.10 1011.27 1010.85 1009.97 1008.77 1006.66 1004.06 1003.95 1001.81 1002.75 1003.70 1004.49 1005.62 1006.64 1007.58 1008.42 1009.52 1010.37 1011.35 1012.24 1013.04 1013.65 1014.38 1015.16 1016.02 1016.79
Wind_Speed
9 9 4 3 4 8 15 9 14 9 9 16 14 8 13 17 7 8 1 3 16 16 21 23 26 26 24 23 23 24 24 23 23 24 24 23 20 19 18 18 19 20 22 23 23 22 21 21 20
8 6 0 2 9 14 11 12 16 16 14 9 13 15 12 12 9 1 3 9 18 18 16 19 29 26 26 23 23 24 23 24 23 23 24 25 22 20 19 20 20 21 22 22 22 21 20 19 18
7 2 1 5 12 22 8 8 15 13 19 21 4 7 13 10 5 7 4 12 15 17 18 16 25 28 26 25 23 23 24 24 24 23 23 23 23 21 21 21 21 20 22 22 21 21 19 17 14
5 2 4 11 21 6 17 9 5 7 10 14 10 8 5 7 10 8 7 10 16 16 18 19 23 25 26 25 24 23 23 24 24 24 22 22 22 23 23 21 21 20 22 20 20 20 18 15 13
3 1 9 15 26 17 10 8 16 22 9 11 9 7 6 6 8 10 8 7 13 14 15 18 22 23 25 24 25 24 23 24 24 24 23 21 22 22 24 24 22 22 21 21 21 20 18 14 12
3 0 10 20 21 13 9 15 18 19 22 13 12 14 9 7 4 4 9 8 8 14 14 17 21 22 23 24 24 25 24 24 24 24 24 22 22 21 23 24 23 23 21 21 20 19 18 14 13
2 2 10 15 16 15 14 10 12 9 15 7 14 6 9 17 27 28 5 8 6 10 13 14 16 16 20 23 24 24 25 24 24 23 23 22 20 21 24 23 23 22 21 20 19 20 18 17 13
4 3 5 8 15 12 6 13 14 13 5 7 11 5 8 14 23 19 24 7 8 9 14 15 15 15 15 15 22 23 24 24 24 23 20 18 16 18 23 24 22 22 21 20 18 19 18 16 12
2 2 8 5 3 7 12 19 17 4 8 13 2 18 15 19 19 23 21 16 1 5 13 14 14 15 15 15 15 20 22 22 21 20 17 15 11 12 15 15 22 22 21 19 19 20 17 12 11
2 4 7 5 6 11 13 14 13 6 9 19 21 8 17 12 13 15 15 16 14 8 8 12 13 14 16 12 14 14 15 13 14 15 16 11 11 10 11 15 21 21 20 19 18 19 14 8 5
5 10 13 16 14 11 17 16 7 11 14 10 20 14 12 23 13 12 13 14 14 16 15 14 14 14 14 13 9 7 8 9 11 16 16 12 9 9 9 9 10 11 14 8 12 9 4 6 5
12 16 16 17 16 15 18 19 16 13 10 8 10 13 13 19 18 12 12 14 14 17 20 13 13 13 13 10 10 10 9 10 10 13 16 13 9 10 9 8 10 10 8 10 8 5 6 6 7
14 15 17 18 17 14 14 17 16 15 12 9 13 15 14 15 22 13 12 11 12 12 18 17 6 12 12 12 9 11 11 11 12 13 15 14 12 12 10 8 9 9 10 9 8 5 5 6 7
5 16 18 17 18 16 18 22 15 16 13 14 13 20 13 16 20 18 13 14 11 8 14 16 18 11 14 14 15 12 12 14 11 13 14 17 14 13 12 10 9 9 9 10 8 6 5 5 6
7 20 21 19 18 16 15 20 18 17 12 16 15 16 16 10 20 22 18 17 12 10 9 14 16 24 12 16 15 12 10 13 11 12 17 18 16 17 15 11 10 9 9 13 10 6 6 6 6
6 7 7 4 4 9 8 18 18 17 10 14 12 12 13 14 14 22 21 17 13 12 12 12 15 16 13 10 11 11 12 12 12 11 13 19 18 20 16 12 11 10 11 11 10 7 7 7 7
2 6 8 21 5 9 7 16 15 17 16 15 14 13 14 16 17 18 18 16 13 14 12 10 14 19 22 8 9 11 13 11 10 11 10 6 15 22 16 13 12 13 11 11 10 6 9 10 8
10 13 15 17 13 15 18 20 20 15 12 13 13 11 13 13 18 15 20 14 11 13 11 8 13 16 19 7 8 8 11 9 8 9 12 17 7 10 17 14 16 14 12 11 12 10 7 8 9
15 13 17 26 21 17 21 23 22 17 12 10 10 9 10 9 13 12 14 11 9 12 8 6 7 16 10 12 10 9 9 10 8 7 13 17 13 12 12 13 16 15 14 14 15 12 14 5 9
10 13 20 25 15 14 16 24 20 16 12 13 12 6 11 13 16 17 15 15 18 13 6 5 6 12 13 13 8 6 9 7 9 9 12 17 20 18 12 9 13 16 13 15 15 15 9 4 6
3 9 16 18 29 14 23 24 18 15 10 5 18 15 13 14 16 17 17 18 18 12 8 8 8 10 15 23 11 7 8 7 6 9 9 12 16 21 20 21 13 14 12 12 16 15 13 11 6
5 7 17 21 15 9 4 12 2 8 15 17 16 15 15 15 16 17 17 18 19 19 15 10 9 12 17 20 14 19 12 12 8 10 11 12 16 17 19 21 20 19 13 13 13 13 12 11 12
12 15 23 25 16 12 8 8 4 10 11 15 15 15 15 17 16 18 18 19 19 18 14 9 13 13 20 20 15 15 13 11 10 12 16 15 13 16 19 20 20 18 17 17 18 15 13 11 11
11 10 18 3 3 5 12 9 5 6 10 14 15 14 16 17 17 17 16 18 17 16 15 12 15 13 16 20 20 20 20 15 15 14 14 12 11 11 15 18 18 17 16 20 18 18 16 14 11
11 7 7 10 5 6 5 6 6 9 11 12 13 15 15 14 15 16 18 18 19 19 19 13 15 16 18 23 22 22 20 19 22 18 15 17 13 12 14 16 16 15 16 18 18 17 15 15 12
3 4 4 6 5 14 10 3 4 8 10 10 10 10 13 14 14 15 16 16 16 17 16 15 12 16 22 21 14 18 19 13 13 17 15 14 14 16 18 17 16 18 17 16 20 14 13 14 12
7 4 6 5 7 7 1 4 12 16 13 13 11 14 15 15 16 16 16 16 16 15 15 15 15 12 16 19 13 18 16 18 16 18 15 13 15 14 18 18 17 16 16 17 15 14 17 15 13
6 1 6 4 6 7 1 3 6 14 16 15 14 15 15 15 16 15 15 15 15 15 13 14 14 12 15 20 11 13 17 18 16 16 16 16 15 17 19 19 18 17 16 16 17 12 13 15 12
4 3 4 2 2 5 7 4 3 6 9 11 12 13 14 14 15 15 15 14 14 14 14 12 11 13 14 19 15 13 9 18 17 16 17 16 16 18 20 20 19 19 18 17 16 14 15 15 16
5 6 6 5 9 3 5 6 2 4 7 11 8 11 14 13 14 14 15 16 16 15 14 14 12 11 10 17 15 11 16 16 17 17 18 18 17 17 19 19 19 19 19 19 19 17 15 17 15
Wind_Direction
356 332 316 42 211 236 235 227 236 267 229 225 227 188 214 215 160 212 289 187 127 152 160 163 162 156 160 162 155 154 152 149 146 143 141 140 141 142 144 142 134 125 119 115 112 108 104 107 105
340 325 326 280 231 231 230 213 233 223 243 286 238 248 247 235 239 319 103 158 144 151 164 168 161 159 160 164 160 157 156 151 151 147 146 144 143 144 144 139 132 124 118 113 116 112 112 111 115
323 261 166 209 240 233 255 197 223 241 235 252 243 216 223 230 210 169 233 136 143 154 163 173 167 159 162 163 163 163 158 155 152 149 150 147 144 142 142 137 130 122 116 116 116 115 115 117 119
6 281 262 240 233 268 238 285 278 281 272 265 261 271 266 205 154 182 166 141 153 160 163 167 172 165 162 163 164 165 163 156 153 149 152 151 146 139 138 135 125 121 115 118 121 118 116 122 125
31 281 243 245 245 247 285 270 266 281 282 284 293 290 294 156 129 127 151 145 157 163 168 162 171 170 164 166 165 166 166 160 157 155 153 153 151 137 131 129 126 121 120 124 126 123 121 127 123
7 319 252 249 252 259 246 249 271 280 292 300 344 332 254 289 15 182 149 164 146 164 166 165 167 172 167 167 168 168 167 162 160 158 155 157 157 140 135 134 131 128 131 134 130 127 125 130 109
137 301 268 283 290 300 293 299 275 329 331 0 313 284 287 28 349 353 217 162 168 162 157 164 166 169 170 167 171 169 167 165 160 161 158 157 159 144 138 137 133 132 134 133 131 130 132 131 107
144 157 281 258 266 292 317 306 315 340 315 334 349 360 329 348 341 349 341 173 169 157 161 166 172 171 172 172 171 170 168 164 161 160 158 150 150 140 142 137 135 133 132 133 132 133 137 129 117
232 256 261 258 280 300 317 305 308 47 309 322 226 317 298 331 351 346 348 331 128 158 167 166 169 177 174 176 177 170 166 162 162 156 148 144 149 142 140 137 135 136 135 136 140 134 137 125 97
176 231 259 245 272 287 297 300 315 314 283 285 294 290 305 324 346 334 333 334 333 314 175 176 171 181 176 177 175 178 170 169 160 160 154 151 148 140 135 137 136 134 132 134 137 132 132 96 87
245 256 270 273 276 283 287 285 293 302 292 270 290 306 324 312 316 313 317 316 322 311 304 178 175 182 185 181 171 174 165 168 164 160 155 148 141 141 141 143 137 135 131 131 126 119 97 106 85
284 274 277 281 282 276 272 285 279 272 263 269 278 303 310 297 300 303 296 304 330 325 312 272 177 179 192 179 174 173 173 175 167 164 154 150 151 152 151 151 146 140 132 128 121 124 127 108 95
280 283 286 289 286 284 288 278 276 270 272 268 293 288 281 280 289 284 277 279 295 317 312 325 253 184 185 187 175 177 177 179 170 166 159 153 156 158 154 144 142 138 138 133 130 122 133 114 105
288 306 298 294 295 290 273 276 276 268 277 277 270 281 268 267 269 275 277 281 277 273 296 315 332 233 186 186 188 185 178 179 169 171 165 161 159 158 157 149 139 139 141 129 128 133 126 118 104
294 306 300 285 276 269 280 284 268 267 259 253 246 259 270 262 270 268 271 267 263 281 288 297 296 305 198 193 187 187 176 173 169 173 170 165 163 160 157 151 143 142 137 122 126 117 102 91 86
299 284 277 86 298 272 248 270 273 266 250 264 259 260 263 266 258 264 258 255 252 257 266 283 314 288 252 191 181 181 178 174 171 171 175 172 167 159 158 152 146 143 140 135 133 135 118 105 102
251 259 269 298 236 275 252 276 274 264 260 259 255 250 250 263 258 255 246 238 247 246 244 262 273 283 293 189 178 175 170 158 158 143 149 138 170 158 152 156 147 146 139 143 138 135 132 122 112
291 289 288 282 301 299 290 280 280 277 262 250 261 255 252 255 272 263 247 246 237 237 204 207 284 273 301 183 167 164 169 159 161 141 159 139 129 184 149 150 148 146 141 143 140 132 124 124 124
274 277 279 286 288 294 284 275 277 275 258 258 260 244 247 276 320 285 253 285 288 275 221 211 238 262 274 223 176 164 171 164 163 168 150 138 141 142 137 148 146 143 147 149 143 134 129 99 127
253 277 285 285 282 303 294 277 278 273 263 256 251 18 20 359 348 354 352 347 339 260 260 253 250 284 290 261 181 166 158 172 159 152 158 145 149 137 135 133 141 135 141 146 146 151 139 107 166
237 282 295 291 306 285 264 275 265 265 270 313 37 20 14 7 353 345 345 338 341 328 346 360 348 294 285 265 162 152 155 145 145 147 143 156 166 155 153 146 152 138 145 155 154 158 160 158 182
308 258 292 281 300 296 81 292 47 54 56 35 24 13 359 357 357 346 343 336 334 329 324 4 345 327 303 261 175 168 167 164 165 159 150 156 163 158 159 152 151 150 153 158 168 163 163 160 175
264 314 285 285 268 294 265 244 41 27 20 16 14 3 358 356 353 347 343 331 332 324 319 3 340 352 326 250 185 176 177 174 158 157 158 163 165 167 164 165 163 164 157 167 165 168 170 171 173
330 314 301 345 200 241 267 205 48 20 8 8 8 2 358 352 350 347 344 338 325 325 329 7 6 332 305 259 191 179 179 163 163 159 162 163 161 164 174 168 167 168 170 165 165 172 174 170 178
23 359 335 353 360 227 351 9 49 35 24 11 3 360 354 348 349 351 347 339 329 334 343 355 0 331 330 325 178 180 182 168 172 160 168 164 164 169 174 172 172 175 176 169 160 170 174 171 174
292 120 135 290 300 300 309 144 86 39 11 7 9 2 349 351 353 349 344 333 331 326 339 340 348 357 331 319 237 183 175 167 175 171 172 172 172 171 171 174 177 178 170 182 162 168 176 170 177
299 28 200 264 255 261 138 112 221 15 9 358 5 4 352 351 355 346 340 337 330 335 328 328 340 9 337 315 309 192 165 172 175 176 173 173 170 172 171 173 175 181 179 172 181 172 171 171 174
124 228 12 354 316 308 313 114 315 352 349 351 1 358 345 349 351 347 341 336 333 332 319 345 333 358 342 302 342 308 171 168 168 167 174 173 170 169 171 174 176 178 179 179 174 177 183 175 171
359 10 16 143 214 302 305 271 22 348 337 351 351 348 340 346 347 343 337 337 333 336 336 335 335 353 353 316 322 345 226 170 168 173 173 174 171 171 175 176 176 178 180 185 181 182 178 187 175
150 180 137 130 289 253 269 263 53 5 344 346 345 346 341 345 343 344 337 337 341 337 336 340 345 347 347 318 319 337 337 174 171 176 174 174 175 174 173 176 177 180 182 183 184 179 178 180 181